DMSP 5D-2 F13 DEB, 40442

Orbit data source: Space-Track

DMSP 5D-2 F13 DEB, 40442 is space debris in SSO originally from a launch on Fri, 24 Mar 1995 UTC launched from the Air Force Western Test Range (AFWTR). Debris objects in space refer to the collection of defunct objects orbiting the Earth. Examples of debris include non-operational satellites, rocket bodies, and fragments generated from explosions, collisions, or faulty payload assembly.

Loading next visibility...
Identifier
40442, 1995-015AU
Orbit
SSO
Country
Flag of USUS
Related business
Manufacturer
Unknown
Mission
Spacecraft
Bus & Motor
Unknown
Mass
Unknown
Launch date (UTC)
1995-03-24 (31 years ago)
Launch vehicle
Unknown
Launch site
Air Force Western Test Range (AFWTR)
Object type
Payload
Rocket body
Debris
Shape & HBR
Unknown shape, 0.2 m
Radar Cross Section
Small (<0.1 m²)

Expand to show TLE details & history
Last TLE update: 1 day ago

TLE from 1 day ago
0 DMSP 5D-2 F13 DEB
1 40442U 95015AU  25348.56502619  .00000150  00000-0  10060-3 0  9996
2 40442  98.8600 358.3508 0011834  62.6731 297.5646 14.14948798556832
Epoch: 2025-12-14T13:33Z
TLE epoch observation values (Epoch: 2025-12-14T13:33:38.262Z)
Latitude
-0°
Longitude
71.46525°
Altitude
841.442 km
Speed
7.434 km/s
True Right ascension
23h 53m 24s
True Declination
0° 00' 00"
Sunlit
Object was in daylight at epoch
Visualization orbit readout
Latitude
Unknown
Longitude
Unknown
Altitude
Unknown
Speed
Unknown
Apparent Right ascension
Unknown
Apparent Declination
Unknown
Sunlit
N/A
Visualization observer readout
Local Sidereal Time
13:02:42
Azimuth
Unknown
Elevation
Unknown
Doppler factor
Unknown
Orbital elements
Apogee altitude
848.2 km
Perigee altitude
831.117 km
Semi-major axis
7,217.796 km
Eccentricity
0.00118
Inclination
98.86°
RAAN
358.3508°
Arg. of periapsis
62.6731°
True anomaly
297.4443°
Mean anomaly
297.5646°
Eccentric anomaly
297.50446°
Mean motion
3.53945 °/min
Orbital period
101.71 mins
BSTAR
0.0001006
Loading maneuver chart data...
Computing Atmospheric mass density...

Documentation

Showing up to 5 results
|